| time (UTC) | temp F | wind direction | speed MPH | gust MPH | rain 1hr in | rain 24hr in | rain mn in | humidity % | barometer mb |
| 20260505124037 | 0 | 0 | 0.0 | 0.0 | 0.00 | 0.05 | 0.03 | 83 | 1016.0 |
| 20260505123514 | 0 | 0 | 0.0 | 0.0 | 0.00 | 0.05 | 0.03 | 83 | 1016.0 |
| 20260505122951 | 0 | 0 | 0.0 | 0.0 | 0.00 | 0.05 | 0.03 | 83 | 1015.9 |
| 20260505122428 | 0 | 0 | 0.0 | 2.0 | 0.00 | 0.05 | 0.03 | 83 | 1016.1 |
| 20260505121905 | 0 | 0 | 0.0 | 2.0 | 0.00 | 0.05 | 0.03 | 83 | 1016.0 |
| 20260505121342 | 0 | 177 | 0.0 | 2.0 | 0.00 | 0.05 | 0.03 | 82 | 1015.8 |
| 20260505120819 | 0 | 0 | 0.0 | 0.0 | 0.00 | 0.05 | 0.03 | 82 | 1015.6 |
| 20260505120256 | 0 | 0 | 0.0 | 0.0 | 0.00 | 0.05 | 0.03 | 82 | 1015.7 |
| 20260505115733 | 0 | 0 | 0.0 | 0.0 | 0.00 | 0.05 | 0.03 | 83 | 1016.0 |
| 20260505115210 | 0 | 0 | 0.0 | 0.0 | 0.00 | 0.05 | 0.03 | 81 | 1015.8 |
| 20260505114647 | 0 | 0 | 0.0 | 0.0 | 0.00 | 0.05 | 0.03 | 82 | 1015.7 |
| 20260505114124 | 0 | 0 | 0.0 | 0.0 | 0.00 | 0.05 | 0.03 | 82 | 1015.7 |
| 20260505113601 | 0 | 0 | 0.0 | 0.0 | 0.00 | 0.05 | 0.03 | 83 | 1016.0 |
| 20260505113038 | 0 | 0 | 0.0 | 0.0 | 0.00 | 0.05 | 0.03 | 82 | 1016.0 |
| 20260505112514 | 0 | 0 | 0.0 | 0.0 | 0.00 | 0.05 | 0.03 | 82 | 1015.9 |
| 20260505111952 | 0 | 0 | 0.0 | 0.0 | 0.00 | 0.05 | 0.03 | 83 | 1015.9 |
| 20260505111428 | 0 | 0 | 0.0 | 0.0 | 0.00 | 0.05 | 0.03 | 82 | 1015.9 |
| 20260505110905 | 0 | 0 | 0.0 | 0.0 | 0.00 | 0.05 | 0.03 | 82 | 1016.0 |
| 20260505110344 | 0 | 0 | 0.0 | 0.0 | 0.00 | 0.05 | 0.03 | 81 | 1015.7 |
| 20260505102039 | 0 | 0 | 0.0 | 0.0 | 0.00 | 0.06 | 0.03 | 81 | 1015.7 |
| 20260505101515 | 0 | 0 | 0.0 | 0.0 | 0.00 | 0.06 | 0.03 | 80 | 1015.8 |
| 20260505100952 | 0 | 0 | 0.0 | 0.0 | 0.00 | 0.06 | 0.03 | 79 | 1015.8 |
| 20260505100430 | 0 | 0 | 0.0 | 0.0 | 0.00 | 0.06 | 0.03 | 80 | 1015.9 |
| 20260505095907 | 0 | 0 | 0.0 | 0.0 | 0.00 | 0.06 | 0.03 | 80 | 1015.9 |
| 20260505095343 | 0 | 0 | 0.0 | 0.0 | 0.00 | 0.06 | 0.03 | 80 | 1015.8 |
| 20260505094821 | 0 | 0 | 0.0 | 0.0 | 0.00 | 0.06 | 0.03 | 79 | 1015.8 |
| 20260505094257 | 0 | 0 | 0.0 | 0.0 | 0.00 | 0.06 | 0.03 | 79 | 1015.8 |
| 20260505093735 | 0 | 0 | 0.0 | 0.0 | 0.00 | 0.06 | 0.03 | 78 | 1015.6 |
| 20260505093211 | 0 | 0 | 0.0 | 0.0 | 0.00 | 0.06 | 0.03 | 78 | 1015.7 |
| 20260505092649 | 0 | 0 | 0.0 | 0.0 | 0.00 | 0.06 | 0.03 | 78 | 1015.7 |
| 20260505092126 | 0 | 0 | 0.0 | 0.0 | 0.00 | 0.06 | 0.03 | 78 | 1015.7 |
| 20260505091602 | 0 | 0 | 0.0 | 2.0 | 0.00 | 0.06 | 0.03 | 78 | 1015.8 |
| 20260505091040 | 0 | 0 | 0.0 | 2.0 | 0.00 | 0.06 | 0.03 | 79 | 1015.9 |
| 20260505090516 | 0 | 175 | 0.0 | 2.0 | 0.00 | 0.06 | 0.03 | 79 | 1015.7 |
| 20260505085954 | 0 | 0 | 0.0 | 0.0 | 0.00 | 0.06 | 0.03 | 79 | 1015.8 |
| 20260505085430 | 0 | 0 | 0.0 | 0.0 | 0.01 | 0.06 | 0.03 | 79 | 1015.8 |
| 20260505084907 | 0 | 0 | 0.0 | 1.0 | 0.01 | 0.06 | 0.03 | 79 | 1015.6 |
| 20260505084345 | 0 | 0 | 0.0 | 1.0 | 0.01 | 0.06 | 0.03 | 80 | 1015.7 |
| 20260505083821 | 0 | 179 | 0.0 | 1.0 | 0.01 | 0.06 | 0.03 | 79 | 1015.7 |
| 20260505083258 | 0 | 305 | 0.0 | 0.0 | 0.01 | 0.06 | 0.03 | 79 | 1015.6 |
| 20260505082735 | 0 | 0 | 0.0 | 2.0 | 0.01 | 0.06 | 0.03 | 77 | 1015.6 |
| 20260505082212 | 0 | 326 | 0.0 | 2.0 | 0.01 | 0.06 | 0.03 | 79 | 1015.4 |
| 20260505081650 | 0 | 350 | 0.0 | 3.0 | 0.01 | 0.06 | 0.03 | 80 | 1015.3 |
| 20260505081126 | 0 | 19 | 0.0 | 3.0 | 0.01 | 0.06 | 0.03 | 79 | 1015.6 |
| 20260505080603 | 0 | 140 | 0.0 | 3.0 | 0.01 | 0.06 | 0.03 | 77 | 1015.3 |
| 20260505080040 | 0 | 159 | 0.0 | 3.0 | 0.01 | 0.06 | 0.03 | 78 | 1015.4 |
| 20260505075518 | 0 | 0 | 0.0 | 3.0 | 0.00 | 0.06 | 0.03 | 78 | 1015.3 |
| 20260505074956 | 0 | 260 | 0.0 | 3.0 | 0.00 | 0.06 | 0.02 | 78 | 1015.5 |
| 20260505074431 | 0 | 238 | 1.0 | 1.0 | 0.00 | 0.06 | 0.02 | 78 | 1015.3 |
| 20260505073908 | 0 | 266 | 0.0 | 1.0 | 0.00 | 0.06 | 0.02 | 76 | 1015.1 |
| 20260505073345 | 0 | 294 | 0.0 | 3.0 | 0.00 | 0.06 | 0.02 | 77 | 1015.3 |
| 20260505072823 | 0 | 295 | 0.0 | 3.0 | 0.00 | 0.06 | 0.02 | 77 | 1015.5 |
| 20260505072259 | 0 | 0 | 0.0 | 1.0 | 0.01 | 0.06 | 0.02 | 77 | 1015.5 |
| 20260505071736 | 0 | 155 | 0.0 | 1.0 | 0.01 | 0.06 | 0.02 | 77 | 1015.3 |
| 20260505071213 | 0 | 347 | 0.0 | 1.0 | 0.01 | 0.06 | 0.02 | 78 | 1015.6 |
| 20260505070651 | 0 | 0 | 0.0 | 1.0 | 0.01 | 0.06 | 0.02 | 77 | 1015.7 |
| 20260505070128 | 0 | 189 | 0.0 | 3.0 | 0.01 | 0.06 | 0.02 | 78 | 1015.7 |
| 20260505065604 | 0 | 170 | 0.0 | 3.0 | 0.01 | 0.06 | 0.02 | 79 | 1015.6 |
| 20260505065041 | 0 | 183 | 0.0 | 3.0 | 0.01 | 0.06 | 0.02 | 79 | 1015.7 |
| 20260505064518 | 0 | 165 | 0.0 | 3.0 | 0.02 | 0.05 | 0.02 | 79 | 1015.5 |
| 20260505063955 | 0 | 107 | 0.0 | 0.0 | 0.02 | 0.05 | 0.02 | 77 | 1015.4 |
| 20260505063432 | 0 | 0 | 0.0 | 4.0 | 0.02 | 0.05 | 0.02 | 80 | 1015.6 |
| 20260505062909 | 0 | 0 | 0.0 | 4.0 | 0.02 | 0.05 | 0.02 | 81 | 1015.5 |
| 20260505062346 | 0 | 148 | 0.0 | 4.0 | 0.01 | 0.05 | 0.02 | 81 | 1015.7 |
| 20260505061824 | 0 | 0 | 0.0 | 0.0 | 0.01 | 0.05 | 0.01 | 79 | 1015.7 |
| 20260505061300 | 0 | 0 | 0.0 | 0.0 | 0.01 | 0.05 | 0.01 | 82 | 1015.7 |
| 20260505060737 | 0 | 0 | 0.0 | 0.0 | 0.01 | 0.05 | 0.01 | 81 | 1015.6 |
| 20260505060305 | 0 | 0 | 0.0 | 0.0 | 0.01 | 0.05 | 0.01 | 81 | 1015.7 |
| 20260505060214 | 0 | 0 | 0.0 | 0.0 | 0.01 | 0.05 | 0.01 | 81 | 1015.7 |
| 20260505055652 | 0 | 0 | 0.0 | 0.0 | 0.01 | 0.05 | 0.01 | 82 | 1015.6 |
| 20260505055128 | 0 | 0 | 0.0 | 4.0 | 0.01 | 0.05 | 0.01 | 81 | 1015.7 |
| 20260505054605 | 0 | 0 | 0.0 | 4.0 | 0.00 | 0.04 | 0.01 | 81 | 1015.7 |
| 20260505054042 | 0 | 322 | 0.0 | 4.0 | 0.00 | 0.04 | 0.00 | 81 | 1015.3 |
| 20260505053519 | 0 | 189 | 0.0 | 3.0 | 0.00 | 0.04 | 0.00 | 82 | 1015.1 |
| 20260505052956 | 0 | 102 | 0.0 | 1.0 | 0.00 | 0.04 | 0.00 | 81 | 1015.2 |
| 20260505052433 | 0 | 0 | 0.0 | 2.0 | 0.00 | 0.04 | 0.00 | 83 | 1015.2 |
| 20260505051910 | 0 | 0 | 0.0 | 2.0 | 0.00 | 0.04 | 0.00 | 84 | 1015.5 |
| 20260505051347 | 0 | 43 | 0.0 | 2.0 | 0.00 | 0.04 | 0.00 | 84 | 1015.9 |
| 20260505050824 | 0 | 0 | 0.0 | 0.0 | 0.00 | 0.04 | 0.00 | 84 | 1015.7 |
| 20260505050301 | 0 | 0 | 0.0 | 5.0 | 0.00 | 0.04 | 0.00 | 85 | 1015.8 |
| 20260505041434 | 0 | 0 | 0.0 | 0.0 | 0.00 | 0.04 | 0.00 | 82 | 1015.2 |
| 20260505040911 | 0 | 0 | 0.0 | 0.0 | 0.00 | 0.04 | 0.00 | 82 | 1015.4 |
| 20260505040347 | 0 | 0 | 0.0 | 0.0 | 0.00 | 0.04 | 0.00 | 82 | 1015.2 |
| 20260505035825 | 0 | 0 | 0.0 | 1.0 | 0.00 | 0.04 | 0.00 | 80 | 1014.9 |
| 20260505035304 | 0 | 82 | 0.0 | 1.0 | 0.00 | 0.04 | 0.00 | 78 | 1014.5 |
| 20260505034739 | 0 | 0 | 0.0 | 0.0 | 0.00 | 0.04 | 0.00 | 73 | 1014.2 |
| 20260505034215 | 0 | 0 | 0.0 | 0.0 | 0.00 | 0.04 | 0.00 | 75 | 1014.3 |
| 20260505033653 | 0 | 0 | 0.0 | 3.0 | 0.00 | 0.04 | 0.00 | 77 | 1014.3 |
| 20260505033129 | 0 | 183 | 0.0 | 3.0 | 0.00 | 0.04 | 0.00 | 75 | 1014.2 |
| 20260505032607 | 0 | 191 | 0.0 | 2.0 | 0.00 | 0.04 | 0.00 | 79 | 1014.2 |
| 20260505032043 | 0 | 0 | 0.0 | 2.0 | 0.00 | 0.04 | 0.00 | 79 | 1014.1 |
| 20260505031521 | 0 | 170 | 0.0 | 2.0 | 0.00 | 0.04 | 0.00 | 75 | 1014.0 |
| 20260505030957 | 0 | 0 | 1.0 | 1.0 | 0.00 | 0.04 | 0.00 | 75 | 1014.0 |
| 20260505030434 | 0 | 0 | 0.0 | 2.0 | 0.00 | 0.04 | 0.00 | 73 | 1014.2 |
| 20260505025911 | 0 | 16 | 0.0 | 2.0 | 0.00 | 0.04 | 0.00 | 74 | 1014.2 |
| 20260505025348 | 0 | 170 | 0.0 | 2.0 | 0.00 | 0.04 | 0.00 | 71 | 1014.3 |
| 20260505024825 | 0 | 133 | 0.0 | 1.0 | 0.00 | 0.04 | 0.00 | 69 | 1014.4 |
| 20260505024303 | 0 | 205 | 0.0 | 1.0 | 0.00 | 0.04 | 0.00 | 69 | 1014.5 |
| 20260505023739 | 0 | 0 | 0.0 | 2.0 | 0.00 | 0.04 | 0.00 | 68 | 1014.6 |
| 20260505023217 | 0 | 210 | 0.0 | 2.0 | 0.00 | 0.04 | 0.00 | 63 | 1014.4 |
| 20260505022654 | 0 | 218 | 0.0 | 2.0 | 0.00 | 0.04 | 0.00 | 66 | 1014.5 |
| 20260505022130 | 0 | 0 | 0.0 | 1.0 | 0.00 | 0.04 | 0.00 | 64 | 1014.6 |
| 20260505021608 | 0 | 266 | 0.0 | 2.0 | 0.00 | 0.04 | 0.00 | 61 | 1014.6 |
| 20260505021044 | 0 | 0 | 0.0 | 2.0 | 0.00 | 0.04 | 0.00 | 64 | 1014.6 |
| 20260505020522 | 0 | 0 | 0.0 | 2.0 | 0.00 | 0.04 | 0.00 | 64 | 1014.6 |
| 20260505015958 | 0 | 222 | 0.0 | 3.0 | 0.00 | 0.04 | 0.00 | 65 | 1014.3 |
| 20260505015435 | 0 | 340 | 0.0 | 3.0 | 0.00 | 0.04 | 0.00 | 63 | 1014.3 |
| 20260505014913 | 0 | 242 | 0.0 | 3.0 | 0.00 | 0.04 | 0.00 | 64 | 1014.6 |
| 20260505014350 | 0 | 0 | 0.0 | 2.0 | 0.00 | 0.04 | 0.00 | 64 | 1014.6 |
| 20260505013826 | 0 | 137 | 1.0 | 5.0 | 0.00 | 0.04 | 0.00 | 62 | 1014.8 |
| 20260505013303 | 0 | 173 | 0.0 | 5.0 | 0.00 | 0.04 | 0.00 | 63 | 1014.8 |
| 20260505012740 | 0 | 142 | 0.0 | 4.0 | 0.00 | 0.04 | 0.00 | 64 | 1014.9 |
| 20260505012217 | 0 | 186 | 0.0 | 4.0 | 0.00 | 0.04 | 0.00 | 64 | 1014.6 |
| 20260505011654 | 0 | 137 | 0.0 | 4.0 | 0.00 | 0.04 | 0.00 | 63 | 1014.4 |
| 20260505011131 | 0 | 235 | 0.0 | 4.0 | 0.00 | 0.04 | 0.00 | 62 | 1014.6 |
| 20260505010609 | 0 | 189 | 0.0 | 4.0 | 0.00 | 0.04 | 0.00 | 63 | 1014.9 |
| 20260505010046 | 0 | 149 | 1.0 | 3.0 | 0.00 | 0.04 | 0.00 | 64 | 1014.9 |
| 20260505005522 | 0 | 355 | 0.0 | 3.0 | 0.00 | 0.04 | 0.00 | 62 | 1014.6 |
| 20260505005000 | 0 | 134 | 0.0 | 3.0 | 0.00 | 0.04 | 0.00 | 61 | 1014.9 |
| 20260505004436 | 0 | 173 | 0.0 | 4.0 | 0.00 | 0.04 | 0.00 | 61 | 1014.9 |
| 20260505003913 | 0 | 63 | 0.0 | 4.0 | 0.00 | 0.04 | 0.00 | 62 | 1014.9 |
| 20260505003350 | 0 | 196 | 0.0 | 4.0 | 0.00 | 0.04 | 0.00 | 61 | 1015.0 |
| 20260505002827 | 0 | 46 | 0.0 | 5.0 | 0.00 | 0.04 | 0.00 | 61 | 1015.0 |
| 20260505002304 | 0 | 75 | 0.0 | 5.0 | 0.00 | 0.04 | 0.00 | 62 | 1015.0 |
| 20260505001742 | 0 | 191 | 1.0 | 5.0 | 0.00 | 0.04 | 0.00 | 61 | 1015.3 |
| 20260505001218 | 0 | 82 | 2.0 | 5.0 | 0.00 | 0.04 | 0.00 | 62 | 1015.3 |
| 20260505000655 | 0 | 33 | 0.0 | 4.0 | 0.00 | 0.04 | 0.00 | 62 | 1015.4 |
| 20260505000132 | 0 | 64 | 0.0 | 3.0 | 0.00 | 0.04 | 0.00 | 61 | 1015.4 |
| 20260504235609 | 0 | 236 | 1.0 | 6.0 | 0.00 | 0.04 | 0.00 | 61 | 1015.3 |
| 20260504235046 | 0 | 46 | 0.0 | 6.0 | 0.00 | 0.04 | 0.00 | 60 | 1015.2 |
| 20260504234523 | 0 | 161 | 1.0 | 6.0 | 0.00 | 0.04 | 0.00 | 60 | 1015.2 |
| 20260504234000 | 0 | 210 | 0.0 | 3.0 | 0.00 | 0.04 | 0.04 | 59 | 1015.2 |
| 20260504233437 | 0 | 79 | 0.0 | 3.0 | 0.00 | 0.04 | 0.04 | 58 | 1015.1 |
| 20260504232915 | 0 | 144 | 1.0 | 3.0 | 0.00 | 0.04 | 0.04 | 58 | 1015.3 |
| 20260504232351 | 0 | 119 | 0.0 | 3.0 | 0.00 | 0.04 | 0.04 | 59 | 1015.3 |
| 20260504231829 | 0 | 190 | 0.0 | 2.0 | 0.00 | 0.04 | 0.04 | 60 | 1014.9 |
| 20260504231305 | 0 | 155 | 1.0 | 4.0 | 0.00 | 0.04 | 0.04 | 60 | 1015.1 |
| 20260504230742 | 0 | 344 | 0.0 | 4.0 | 0.00 | 0.04 | 0.04 | 62 | 1015.4 |
| 20260504230219 | 0 | 190 | 1.0 | 3.0 | 0.00 | 0.04 | 0.04 | 63 | 1015.4 |
| 20260504225656 | 0 | 327 | 1.0 | 9.0 | 0.00 | 0.04 | 0.04 | 62 | 1015.4 |
| 20260504225135 | 0 | 327 | 1.0 | 9.0 | 0.00 | 0.04 | 0.04 | 60 | 1015.1 |
| 20260504224610 | 0 | 177 | 1.0 | 9.0 | 0.00 | 0.04 | 0.04 | 62 | 1015.2 |
| 20260504224047 | 0 | 173 | 1.0 | 6.0 | 0.00 | 0.04 | 0.04 | 63 | 1015.4 |
| 20260504223524 | 0 | 233 | 1.0 | 6.0 | 0.00 | 0.04 | 0.04 | 62 | 1015.4 |
| 20260504223001 | 0 | 183 | 3.0 | 6.0 | 0.00 | 0.04 | 0.04 | 61 | 1015.2 |
| 20260504222438 | 0 | 347 | 1.0 | 6.0 | 0.00 | 0.04 | 0.04 | 63 | 1015.3 |
| 20260504221915 | 0 | 78 | 2.0 | 6.0 | 0.00 | 0.04 | 0.04 | 62 | 1015.4 |
| 20260504221352 | 0 | 187 | 1.0 | 6.0 | 0.00 | 0.04 | 0.04 | 61 | 1015.6 |
| 20260504220829 | 0 | 201 | 0.0 | 7.0 | 0.00 | 0.04 | 0.04 | 62 | 1015.5 |
| 20260504220306 | 0 | 173 | 1.0 | 7.0 | 0.00 | 0.04 | 0.04 | 60 | 1015.3 |
| 20260504215743 | 0 | 197 | 1.0 | 4.0 | 0.00 | 0.04 | 0.04 | 63 | 1015.4 |
| 20260504215220 | 0 | 42 | 2.0 | 6.0 | 0.00 | 0.04 | 0.04 | 65 | 1015.5 |
| 20260504214658 | 0 | 152 | 1.0 | 6.0 | 0.00 | 0.04 | 0.04 | 64 | 1015.5 |
| 20260504214134 | 0 | 229 | 1.0 | 8.0 | 0.00 | 0.04 | 0.04 | 63 | 1015.4 |
| 20260504213611 | 0 | 172 | 2.0 | 8.0 | 0.00 | 0.04 | 0.04 | 64 | 1015.4 |
| 20260504213048 | 0 | 166 | 1.0 | 8.0 | 0.00 | 0.04 | 0.04 | 67 | 1015.5 |
| 20260504212525 | 0 | 151 | 2.0 | 5.0 | 0.00 | 0.04 | 0.04 | 69 | 1015.6 |
| 20260504212002 | 0 | 338 | 1.0 | 4.0 | 0.00 | 0.04 | 0.04 | 67 | 1015.5 |
| 20260504211439 | 0 | 68 | 1.0 | 4.0 | 0.00 | 0.04 | 0.04 | 71 | 1015.4 |
| 20260504210916 | 0 | 357 | 1.0 | 6.0 | 0.00 | 0.04 | 0.04 | 69 | 1015.5 |
| 20260504210353 | 0 | 1 | 1.0 | 6.0 | 0.00 | 0.04 | 0.04 | 70 | 1015.6 |
| 20260504205830 | 0 | 176 | 1.0 | 6.0 | 0.00 | 0.04 | 0.04 | 70 | 1015.5 |
| 20260504205307 | 0 | 51 | 2.0 | 8.0 | 0.00 | 0.04 | 0.04 | 69 | 1015.7 |
| 20260504204744 | 0 | 179 | 1.0 | 8.0 | 0.00 | 0.04 | 0.04 | 67 | 1015.6 |
| 20260504204221 | 0 | 196 | 2.0 | 5.0 | 0.00 | 0.04 | 0.04 | 70 | 1015.7 |
| 20260504203658 | 0 | 163 | 1.0 | 6.0 | 0.00 | 0.04 | 0.04 | 71 | 1015.9 |
| 20260504203134 | 0 | 15 | 2.0 | 6.0 | 0.00 | 0.04 | 0.04 | 71 | 1015.8 |
| 20260504202612 | 0 | 184 | 0.0 | 6.0 | 0.00 | 0.04 | 0.04 | 75 | 1015.8 |
| 20260504202049 | 0 | 141 | 2.0 | 4.0 | 0.00 | 0.04 | 0.04 | 75 | 1015.7 |
| 20260504201526 | 0 | 284 | 1.0 | 5.0 | 0.00 | 0.04 | 0.04 | 75 | 1015.7 |
| 20260504201002 | 0 | 121 | 1.0 | 5.0 | 0.00 | 0.04 | 0.04 | 72 | 1015.9 |
| 20260504200439 | 0 | 86 | 0.0 | 5.0 | 0.00 | 0.04 | 0.04 | 72 | 1015.7 |
| 20260504195916 | 0 | 18 | 0.0 | 5.0 | 0.00 | 0.04 | 0.04 | 71 | 1015.5 |
| 20260504195355 | 0 | 32 | 1.0 | 5.0 | 0.00 | 0.04 | 0.04 | 67 | 1015.5 |
| 20260504194831 | 0 | 197 | 0.0 | 6.0 | 0.00 | 0.04 | 0.04 | 71 | 1015.5 |
| 20260504194307 | 0 | 141 | 1.0 | 6.0 | 0.00 | 0.04 | 0.04 | 71 | 1015.4 |
| 20260504193744 | 0 | 175 | 0.0 | 6.0 | 0.00 | 0.04 | 0.04 | 74 | 1015.5 |
| 20260504193222 | 0 | 53 | 2.0 | 5.0 | 0.00 | 0.04 | 0.04 | 77 | 1015.2 |
| 20260504192659 | 0 | 200 | 1.0 | 5.0 | 0.00 | 0.04 | 0.04 | 80 | 1015.5 |
| 20260504192136 | 0 | 187 | 0.0 | 8.0 | 0.00 | 0.04 | 0.04 | 76 | 1015.6 |
| 20260504191612 | 0 | 197 | 2.0 | 8.0 | 0.00 | 0.04 | 0.04 | 76 | 1015.8 |
| 20260504191049 | 0 | 120 | 2.0 | 8.0 | 0.00 | 0.04 | 0.04 | 76 | 1015.8 |
| 20260504190526 | 0 | 193 | 2.0 | 5.0 | 0.00 | 0.04 | 0.04 | 74 | 1015.7 |
| 20260504190003 | 0 | 203 | 2.0 | 7.0 | 0.00 | 0.04 | 0.04 | 76 | 1015.9 |
| 20260504185440 | 0 | 285 | 1.0 | 7.0 | 0.00 | 0.04 | 0.04 | 77 | 1015.8 |
| 20260504184918 | 0 | 193 | 1.0 | 7.0 | 0.00 | 0.04 | 0.04 | 76 | 1015.4 |
| 20260504184354 | 0 | 22 | 2.0 | 5.0 | 0.00 | 0.04 | 0.04 | 76 | 1015.6 |
| 20260504183832 | 0 | 190 | 0.0 | 5.0 | 0.00 | 0.04 | 0.04 | 79 | 1015.9 |
| 20260504183309 | 0 | 256 | 0.0 | 5.0 | 0.00 | 0.04 | 0.04 | 79 | 1015.9 |
| 20260504182745 | 0 | 180 | 1.0 | 6.0 | 0.00 | 0.04 | 0.04 | 79 | 1015.4 |
| 20260504182222 | 0 | 172 | 3.0 | 6.0 | 0.00 | 0.04 | 0.04 | 81 | 1015.8 |
| 20260504181659 | 0 | 205 | 2.0 | 5.0 | 0.00 | 0.04 | 0.04 | 71 | 1015.7 |
| 20260504181136 | 0 | 169 | 1.0 | 5.0 | 0.00 | 0.04 | 0.04 | 73 | 1015.6 |
| 20260504180614 | 0 | 40 | 1.0 | 5.0 | 0.00 | 0.04 | 0.04 | 75 | 1015.4 |
| 20260504180050 | 0 | 71 | 0.0 | 5.0 | 0.00 | 0.04 | 0.04 | 81 | 1015.1 |
| 20260504175527 | 0 | 1 | 0.0 | 8.0 | 0.00 | 0.04 | 0.04 | 81 | 1015.1 |
| 20260504175004 | 0 | 140 | 1.0 | 8.0 | 0.00 | 0.04 | 0.04 | 83 | 1015.3 |
| 20260504174442 | 0 | 238 | 0.0 | 8.0 | 0.00 | 0.04 | 0.04 | 83 | 1015.2 |
| 20260504173918 | 0 | 189 | 1.0 | 7.0 | 0.00 | 0.04 | 0.04 | 82 | 1014.8 |
| 20260504173355 | 0 | 54 | 0.0 | 7.0 | 0.00 | 0.04 | 0.04 | 82 | 1014.9 |
| 20260504172832 | 0 | 145 | 0.0 | 8.0 | 0.00 | 0.04 | 0.04 | 81 | 1014.9 |
| 20260504172309 | 0 | 207 | 0.0 | 8.0 | 0.00 | 0.04 | 0.04 | 82 | 1014.8 |
| 20260504171746 | 0 | 315 | 1.0 | 6.0 | 0.00 | 0.04 | 0.04 | 79 | 1014.9 |
| 20260504171223 | 0 | 177 | 0.0 | 6.0 | 0.00 | 0.04 | 0.04 | 82 | 1014.9 |
| 20260504170700 | 0 | 133 | 0.0 | 6.0 | 0.00 | 0.04 | 0.04 | 83 | 1015.1 |
| 20260504170137 | 0 | 148 | 1.0 | 6.0 | 0.00 | 0.04 | 0.04 | 82 | 1014.9 |
| 20260504160224 | 0 | 152 | 0.0 | 7.0 | 0.01 | 0.04 | 0.04 | 82 | 1014.8 |
| 20260504150834 | 0 | 147 | 2.0 | 6.0 | 0.01 | 0.03 | 0.03 | 86 | 1015.0 |
| 20260504150311 | 0 | 0 | 0.0 | 7.0 | 0.01 | 0.03 | 0.03 | 82 | 1014.2 |
| 20260504140922 | 0 | 338 | 0.0 | 8.0 | 0.00 | 0.02 | 0.02 | 86 | 1014.1 |
| 20260504140358 | 0 | 151 | 1.0 | 8.0 | 0.00 | 0.02 | 0.02 | 84 | 1014.2 |
| 20260504130444 | 0 | 133 | 0.0 | 6.0 | 0.00 | 0.02 | 0.02 | 83 | 1013.4 |